Wind_Speed
3 4 6 5 4 5 9 12 13 12 11 10 9 6 4 7 10 8 8 6 5 9 11 14 17 21 24 21 19 19 15 9 6 8 9 7 7 9 10 9 9 9 9 9 8 8 9 9 10 9 9 10 10 11 12 12 12 13 13 13 12 11 10 10 11 13 15 16 18 18 18 18 18 18 18 18 19 19 20 21 22 23 23 24 24 24
5 6 8 7 6 7 9 14 17 16 13 8 5 3 5 9 10 9 9 5 7 10 11 14 16 19 20 17 17 20 17 12 8 4 4 6 7 9 10 10 9 10 10 9 9 9 9 10 10 10 10 10 10 11 12 12 13 13 14 14 14 13 11 11 12 14 15 17 19 20 20 20 20 20 21 21 21 22 23 24 25 26 26 27 27 27
9 10 11 10 9 9 10 13 17 16 11 6 7 8 9 11 10 10 11 10 11 11 11 15 17 18 20 20 20 20 20 17 11 5 5 9 10 10 11 11 10 9 9 10 10 11 11 12 12 12 13 12 12 12 13 13 13 14 14 15 16 15 13 13 13 14 16 18 20 21 21 23 23 23 23 24 24 25 25 26 27 28 29 30 30 30
11 14 15 14 13 11 9 12 14 9 5 7 10 12 13 13 11 11 13 15 14 11 10 14 18 19 22 25 25 23 22 21 15 9 10 12 12 11 10 10 9 9 11 13 13 13 13 13 14 15 15 16 16 15 15 15 15 15 16 17 18 17 16 15 15 16 18 19 20 22 23 25 25 25 26 27 27 27 28 29 29 31 32 32 32 32
15 18 18 17 16 13 10 9 9 7 8 11 13 13 12 11 13 15 16 17 16 13 15 19 22 23 23 25 26 24 23 22 17 15 14 14 13 12 11 13 13 12 15 16 15 15 14 14 16 17 18 18 18 18 17 17 18 19 19 20 20 19 18 17 17 18 19 20 22 23 25 26 27 27 29 29 29 30 30 31 32 33 34 35 35 35
17 19 19 17 13 10 8 5 6 9 12 15 15 14 13 14 16 16 17 16 13 14 18 22 25 24 22 23 24 24 25 25 22 19 18 16 15 15 15 17 19 18 18 18 16 15 15 17 19 19 19 19 19 19 19 19 20 21 22 22 21 21 20 20 20 21 22 23 24 25 26 28 28 29 30 31 31 32 33 33 34 35 36 37 38 38
13 13 14 13 10 7 5 4 7 14 15 14 16 17 16 16 15 15 15 15 15 15 16 20 24 24 21 21 23 25 26 26 26 23 22 20 18 16 16 18 23 22 20 18 16 15 18 21 22 21 21 21 21 21 22 22 23 23 24 23 22 22 22 22 22 23 24 26 27 27 28 30 30 31 32 33 33 34 34 34 35 36 38 39 39 40
8 9 10 10 10 9 7 4 10 19 18 14 16 18 19 17 14 13 13 13 15 17 16 17 21 25 23 19 22 26 26 27 26 23 21 20 19 18 18 20 23 20 17 17 18 18 20 23 24 23 23 24 24 25 25 26 26 25 25 24 23 23 23 24 24 25 26 28 29 29 30 31 33 33 34 34 34 35 35 36 37 38 39 40 40 40
6 7 10 12 10 9 8 7 12 19 18 14 16 18 18 18 17 16 15 15 18 21 20 15 17 25 25 20 22 27 28 26 24 20 18 18 19 19 20 22 21 17 15 18 21 22 25 27 28 27 27 28 28 29 29 28 27 26 24 24 24 24 25 25 25 26 27 29 30 31 32 33 34 35 35 35 36 36 37 37 38 39 40 40 41 41
6 6 8 10 8 8 10 11 13 14 13 13 16 17 18 19 19 20 20 19 21 24 23 18 16 24 27 23 23 27 27 24 22 22 22 20 19 19 20 22 22 19 17 21 25 28 30 33 33 32 31 31 32 32 29 27 26 24 22 23 25 26 26 26 27 28 29 30 32 33 34 35 36 37 37 37 38 38 39 39 39 40 41 41 41 41
11 11 12 12 10 11 12 13 14 13 11 12 15 17 18 20 22 25 26 25 26 26 23 19 17 25 30 26 21 23 25 24 23 24 25 24 23 22 20 19 22 22 22 26 31 34 35 36 36 35 33 33 34 32 28 25 24 23 23 26 27 28 28 28 29 30 31 32 33 35 36 37 37 38 38 39 39 40 40 40 41 41 41 42 42 42
15 14 13 13 12 14 14 14 14 13 12 14 16 18 19 20 22 25 26 26 28 26 21 18 18 24 29 25 20 21 24 24 24 24 26 27 25 24 22 21 23 25 27 32 36 38 38 37 34 34 33 31 31 29 25 24 25 26 28 30 30 30 30 30 31 32 33 34 35 36 37 38 39 39 39 40 40 40 41 41 42 42 42 42 43 43
17 15 13 13 13 17 19 16 14 14 16 17 18 21 22 22 21 22 22 23 26 24 21 20 21 24 25 24 22 23 25 25 25 25 27 27 26 26 26 27 29 31 32 35 38 39 39 35 32 31 29 26 26 27 27 28 30 32 33 33 32 31 31 32 32 33 34 35 36 37 38 39 39 39 40 40 41 41 42 42 43 43 43 43 44 44
18 15 15 15 16 20 21 18 17 19 19 19 20 23 24 23 22 22 22 23 25 25 25 26 28 28 26 25 26 26 27 27 27 29 31 31 30 31 32 34 36 37 37 37 37 39 38 33 29 28 28 28 30 31 31 31 32 32 33 33 33 33 32 33 34 35 35 37 38 38 39 40 40 40 40 41 41 42 42 43 43 43 44 44 45 46
17 15 17 18 19 21 21 21 23 23 21 21 22 23 23 23 25 27 28 28 30 30 29 29 31 31 28 28 29 29 31 31 32 33 34 35 36 36 37 38 39 39 39 38 37 36 33 29 27 28 29 32 35 35 33 32 33 33 33 34 35 35 35 35 36 37 38 39 39 40 40 41 41 41 42 42 42 43 43 43 44 44 45 46 47 48
19 17 18 19 21 20 20 23 27 24 20 20 21 21 22 24 26 28 31 32 33 35 34 33 33 32 30 31 31 31 32 34 36 35 33 34 36 36 37 38 39 40 40 39 36 32 30 28 28 30 32 34 35 36 35 35 35 36 38 39 40 40 39 39 40 41 41 41 41 40 40 41 41 42 42 43 43 43 44 44 45 46 47 48 49 50
23 21 21 21 21 20 20 24 28 26 23 22 21 20 22 25 27 28 30 31 33 37 38 37 36 34 32 32 30 28 28 32 33 31 29 29 31 33 34 35 37 39 40 39 36 34 32 31 30 32 33 33 34 36 38 39 39 40 42 44 44 44 43 43 44 44 43 42 41 40 40 41 41 42 43 43 44 44 44 45 46 48 49 50 52 53
27 25 24 24 24 22 21 24 28 31 31 28 26 25 27 28 29 30 32 33 34 37 38 38 38 37 35 33 29 26 29 31 30 29 30 30 30 31 32 33 35 37 39 40 39 38 36 34 34 34 35 36 37 38 41 44 45 45 45 46 46 45 44 44 44 43 42 40 40 39 40 41 41 42 43 44 45 45 46 48 49 50 52 53 54 55
32 30 28 26 26 25 24 25 28 31 34 34 33 34 35 33 32 32 35 37 37 38 38 37 36 37 36 34 31 31 33 34 32 32 34 34 32 30 30 32 34 36 39 41 40 37 35 35 36 37 39 41 41 42 44 45 45 46 46 46 46 45 45 45 44 42 41 40 40 41 41 42 43 43 45 45 46 48 49 50 51 53 54 56 57 57
36 35 33 30 28 27 27 28 30 32 34 36 36 38 39 39 40 40 41 40 38 37 38 37 35 35 36 34 32 33 33 32 33 33 33 34 33 32 32 34 36 37 38 39 38 34 33 36 37 39 41 42 43 45 45 43 44 45 45 45 46 46 46 46 44 43 43 43 42 43 43 44 44 45 46 48 49 50 51 53 54 56 57 58 58 58
38 37 38 36 32 31 31 32 34 36 36 37 39 40 41 42 45 45 44 41 39 37 38 39 35 33 36 36 33 34 34 33 33 32 32 35 36 37 38 38 39 39 36 35 36 36 37 39 40 40 41 42 43 45 44 44 44 45 46 45 45 45 44 44 45 46 47 46 46 45 45 45 45 46 47 50 52 53 54 56 57 58 58 58 57 57
39 39 41 40 37 35 34 34 34 37 38 39 40 40 40 41 41 41 41 40 39 38 39 42 39 36 38 38 36 37 37 36 35 35 37 40 40 40 40 40 41 42 41 41 44 46 46 45 45 46 45 46 47 47 47 48 46 44 43 43 41 42 44 46 48 49 48 48 48 48 48 46 46 47 48 50 52 54 56 57 58 58 58 57 57 58
40 41 42 41 39 37 36 35 34 34 34 35 36 37 37 36 36 37 39 39 40 41 42 44 43 42 42 41 40 41 40 38 39 41 44 47 46 45 45 45 45 45 45 45 47 48 47 45 47 48 48 49 49 48 49 51 48 42 39 39 40 45 49 51 51 49 48 48 49 49 49 49 49 50 51 52 53 54 56 58 58 58 58 58 58 58
41 42 41 40 38 38 38 38 37 35 33 33 34 34 35 35 35 36 38 40 42 43 44 47 47 45 43 44 46 47 46 44 45 46 47 48 48 49 51 52 51 49 48 49 51 51 48 48 49 49 50 48 46 47 49 52 53 49 45 43 46 49 49 49 49 49 49 50 51 52 53 54 55 54 54 54 54 56 57 57 57 57 56 56 57 58
42 43 42 41 39 39 40 39 39 38 37 37 36 35 36 37 37 38 38 40 42 44 46 50 51 47 43 44 48 50 51 50 48 48 48 47 46 48 50 53 53 52 52 54 55 54 53 53 55 55 54 51 49 51 53 55 57 55 51 50 50 48 45 46 49 51 52 54 54 55 55 54 54 54 54 54 54 55 56 56 55 55 56 57 59 59
44 45 45 44 43 43 43 43 42 41 40 41 40 39 40 40 41 41 40 41 43 45 48 50 52 51 46 45 48 50 53 54 52 50 49 47 47 48 49 50 53 54 55 56 57 58 58 58 59 58 57 54 55 57 59 59 58 56 54 54 52 48 47 50 54 56 58 58 57 57 55 53 52 53 53 53 54 55 56 56 56 57 58 59 59 57
46 46 47 47 47 47 48 48 47 45 44 43 41 41 42 42 42 42 44 45 46 48 51 51 52 54 50 47 49 52 54 55 54 53 53 51 51 51 52 52 52 53 55 56 58 61 62 63 63 62 60 59 59 62 62 61 61 61 60 59 58 56 58 60 61 61 61 60 58 58 57 55 54 54 54 56 58 59 58 57 57 58 59 58 57 56
48 49 49 50 49 50 51 51 51 51 49 47 45 43 43 45 45 45 47 49 49 52 54 52 51 54 53 50 52 54 55 56 56 57 58 58 57 56 56 55 54 54 55 57 60 63 64 64 63 61 62 63 63 64 65 65 65 65 65 64 63 62 63 63 62 60 59 58 57 57 57 57 57 57 59 60 60 59 58 57 58 58 58 57 57 59
50 51 52 52 52 52 52 53 54 54 53 52 50 48 48 49 48 48 52 54 55 56 57 55 53 55 55 55 55 57 59 60 61 62 63 64 63 62 61 60 59 59 60 61 63 64 64 63 62 62 65 67 67 68 70 70 68 67 67 67 66 65 65 64 63 60 58 58 58 58 58 59 59 61 62 61 60 59 58 58 59 59 59 59 60 61
51 52 54 55 55 53 53 55 57 57 57 55 51 51 54 54 51 52 57 58 58 59 59 59 59 57 56 57 59 60 61 63 64 65 66 66 67 66 66 65 65 66 67 67 67 67 67 67 67 68 69 70 69 69 70 69 68 68 68 68 68 68 68 68 67 65 64 65 63 61 61 61 61 62 61 60 59 60 60 60 60 61 61 61 62 61
51 52 54 56 57 54 52 56 58 59 60 57 52 53 57 56 54 57 61 61 61 61 61 62 62 60 57 59 61 61 62 62 63 64 65 66 67 68 68 68 68 68 68 67 67 67 67 68 68 69 69 69 68 67 67 67 67 67 68 69 70 70 71 71 71 70 70 69 66 64 63 63 64 62 60 59 59 60 61 61 62 62 62 62 62 61
51 52 52 55 59 55 51 56 59 60 62 58 53 55 59 58 59 60 62 63 64 64 64 64 65 64 62 61 62 62 63 62 62 63 63 63 65 65 66 66 67 66 65 64 63 62 63 64 64 64 64 64 65 66 66 66 66 65 65 66 66 67 68 69 68 69 69 68 66 64 62 62 62 60 59 60 61 61 61 61 61 62 62 62 62 62
51 52 52 54 58 54 50 56 61 62 63 58 54 57 59 59 62 62 62 64 65 64 65 65 65 66 65 64 64 64 64 63 63 63 63 63 63 63 63 63 63 63 62 61 60 60 61 62 62 61 60 60 60 61 62 62 61 60 61 62 63 64 64 64 66 68 68 65 61 58 56 57 59 60 60 61 61 60 60 60 61 62 63 64 65 64
51 52 51 52 56 54 51 55 61 64 62 56 53 57 58 59 61 62 63 65 65 65 66 66 66 67 66 66 65 65 66 66 65 65 65 63 63 62 62 61 61 60 60 59 58 58 59 60 61 61 60 59 59 60 61 61 60 61 62 64 64 64 64 67 68 64 58 54 52 53 55 58 60 61 60 59 60 61 62 62 64 65 66 66 66 66
51 51 51 52 54 55 53 55 60 62 58 54 55 58 58 59 61 61 63 65 65 66 66 66 67 67 66 65 64 64 66 67 67 66 65 63 62 61 60 60 59 59 59 58 57 56 56 56 58 59 60 61 61 62 64 64 63 63 62 61 62 64 66 68 63 54 49 51 53 56 59 60 61 61 60 61 63 65 65 65 66 67 67 67 66 65
51 51 52 52 54 55 55 57 61 61 58 55 57 58 58 60 61 61 63 64 65 66 67 67 67 66 65 65 64 62 62 64 64 64 63 62 60 59 59 59 59 58 58 57 56 55 55 55 55 56 58 60 61 61 62 62 61 61 61 62 65 65 61 57 52 50 51 54 55 57 58 59 61 62 64 66 68 68 67 67 68 68 67 64 62 60
51 52 53 54 54 55 57 58 61 62 60 57 57 58 59 60 61 61 62 64 64 64 65 66 66 66 65 65 64 62 61 61 61 60 60 59 58 57 56 56 57 57 57 57 57 57 58 58 57 58 60 60 60 59 60 61 62 63 63 62 59 55 51 50 51 53 54 54 54 56 58 60 62 65 67 68 68 68 68 67 66 63 60 57 55 55
52 53 53 55 56 56 57 59 60 62 61 57 56 59 60 60 61 61 62 63 63 63 63 63 63 63 63 62 62 61 60 59 59 58 58 58 58 58 57 57 57 58 58 58 56 56 56 55 55 57 58 59 59 59 59 59 58 56 54 51 48 48 50 54 56 57 57 57 58 59 61 63 66 68 69 69 69 68 66 62 58 54 53 53 55 56
52 53 53 54 56 55 56 58 58 59 59 57 56 57 58 59 59 59 60 61 61 61 61 60 60 61 61 61 61 61 60 60 59 59 59 59 60 60 60 60 60 60 60 59 57 56 57 56 54 53 52 50 48 45 43 42 43 44 46 48 51 55 59 61 61 61 62 62 63 64 66 68 70 71 70 69 67 63 58 53 51 51 53 56 58 59
51 51 51 52 53 52 53 54 55 56 56 56 55 56 56 57 57 56 57 58 58 57 57 57 58 59 60 60 61 60 60 60 60 61 61 62 62 62 62 62 62 62 61 61 60 59 60 60 60 59 56 53 50 47 45 46 50 53 57 59 61 63 63 63 63 64 64 65 68 70 71 72 72 71 68 65 60 54 50 50 52 54 57 58 60 62
49 49 49 49 50 49 49 51 52 53 54 54 54 55 54 53 53 54 56 57 56 56 57 57 57 58 58 59 60 60 61 62 62 62 62 63 63 64 64 64 64 63 62 62 61 60 60 59 60 60 58 56 57 60 62 64 67 68 67 65 64 64 64 64 65 66 68 71 73 74 75 74 72 67 62 56 51 49 50 53 55 57 58 60 61 62
49 49 48 48 48 48 49 50 51 52 53 53 53 53 51 50 51 53 55 56 57 57 59 59 59 59 60 61 62 62 63 64 65 65 65 65 66 66 66 66 66 65 64 63 62 62 62 62 63 63 63 62 63 65 68 71 73 72 71 68 67 66 66 66 68 70 72 74 75 76 76 72 66 60 54 50 49 51 53 55 57 58 59 60 61 62
49 49 49 48 49 49 49 50 50 52 53 52 52 52 50 50 52 54 55 56 58 59 61 61 61 62 63 64 64 65 66 67 68 69 69 69 69 69 69 69 69 68 67 66 65 65 65 66 67 68 69 70 71 71 73 75 76 76 75 73 72 71 71 72 74 75 77 77 77 76 71 64 58 54 51 50 52 54 55 57 58 59 59 60 60 59
47 48 49 50 51 52 52 51 51 54 55 54 53 55 55 54 55 57 58 59 61 62 64 65 65 66 67 68 68 69 69 70 71 72 73 73 73 73 73 73 73 72 71 70 69 70 70 72 73 74 75 76 77 78 79 80 80 80 80 79 79 79 80 80 81 82 82 80 75 69 62 56 53 52 51 51 53 55 56 57 57 57 58 57 56 54
47 48 50 50 52 56 56 55 54 56 58 57 57 59 59 59 60 62 64 65 66 66 68 70 70 70 71 72 73 73 73 73 74 75 75 76 75 76 76 76 76 76 75 74 74 75 76 77 77 78 79 80 81 82 82 83 83 83 83 83 83 83 83 83 83 82 79 72 65 58 54 51 49 49 50 52 53 54 55 55 55 55 55 53 51 51
48 50 51 53 56 60 60 57 58 60 61 61 61 63 64 64 66 67 69 70 71 71 72 73 74 74 75 76 77 78 77 77 76 76 76 76 75 75 76 76 77 77 77 77 77 78 79 79 79 80 81 82 82 82 83 83 83 82 81 80 78 77 76 74 72 70 66 59 53 49 47 45 45 48 50 51 52 53 54 54 54 52 51 49 49 49
51 53 55 58 62 64 63 60 60 63 64 64 65 67 67 69 70 71 73 74 75 75 75 76 77 77 78 78 79 79 78 78 77 77 76 75 74 73 72 72 72 72 71 71 70 70 69 67 67 67 67 66 67 68 69 69 68 67 65 63 62 60 59 57 56 55 52 48 44 42 41 42 45 47 49 50 50 51 52 52 51 49 48 47 47 47
55 57 60 64 67 67 65 62 62 65 66 67 69 70 70 71 71 72 74 75 75 75 75 75 75 76 75 75 75 75 75 74 73 72 71 70 67 64 61 59 57 55 53 51 49 47 45 46 48 49 48 47 48 49 49 48 47 46 46 46 46 47 47 48 48 46 43 39 38 39 41 43 45 46 47 48 49 49 49 48 48 46 45 45 46 46
60 61 63 68 71 69 67 65 66 68 70 70 71 72 72 72 72 73 73 73 71 71 70 70 69 68 67 67 66 66 65 63 61 60 59 57 54 50 47 44 43 40 36 34 33 33 34 37 41 43 43 41 40 40 40 39 38 37 38 41 43 46 47 46 43 38 36 36 38 41 42 43 44 45 46 46 46 45 45 45 44 43 42 43 45 46
63 64 67 71 72 71 69 68 69 72 74 73 72 71 71 70 69 68 67 65 63 63 63 62 60 57 54 53 51 49 48 47 46 46 44 42 40 39 38 37 35 31 27 26 28 30 32 36 39 41 41 41 39 37 36 37 37 38 39 42 45 45 43 39 36 34 36 38 40 41 42 43 44 44 43 42 41 41 41 41 41 41 40 41 43 47
65 69 70 70 69 69 69 69 70 72 74 72 70 67 66 63 61 59 57 54 53 52 50 48 45 42 39 37 36 37 37 36 35 35 34 34 35 35 33 31 29 26 24 24 25 26 30 34 38 40 42 42 39 37 35 36 38 39 40 40 41 38 35 33 34 36 38 39 40 41 42 43 42 40 38 38 37 37 36 36 37 39 40 40 43 47
Wind_Direction
231 223 215 205 196 203 206 208 213 213 210 213 217 220 248 255 238 207 169 171 279 289 281 281 289 296 298 300 301 299 304 312 309 296 300 306 290 288 294 298 305 310 315 318 314 308 304 305 306 306 303 299 297 295 296 294 290 287 283 281 284 290 295 295 293 295 296 296 295 296 298 297 295 295 295 295 295 295 295 296 297 298 299 299 300 301
212 202 193 180 169 184 207 221 230 231 221 219 244 275 290 277 254 214 186 189 262 273 274 274 280 286 291 298 295 291 297 310 319 296 297 313 295 290 287 282 296 306 312 314 312 315 316 315 316 315 311 305 301 298 297 297 292 289 285 284 287 292 294 293 291 291 291 291 292 295 296 295 294 294 295 295 294 295 296 296 298 299 300 300 301 303
211 202 191 179 176 187 208 225 237 240 235 260 302 301 293 284 259 214 198 208 237 257 272 281 287 287 291 296 289 288 295 306 319 291 289 321 318 312 297 284 296 310 315 314 313 318 319 320 320 318 315 310 306 303 300 298 294 290 288 288 292 296 296 295 292 289 288 288 290 293 293 293 293 294 294 294 294 295 296 296 297 298 298 299 301 302
207 200 198 195 194 199 218 235 243 251 281 300 288 280 285 283 256 216 203 204 213 236 259 274 280 278 281 285 283 287 292 298 307 292 294 319 322 324 313 293 294 307 314 312 312 315 314 318 320 318 315 310 306 304 300 298 294 292 291 292 295 296 296 294 291 289 288 288 289 290 291 291 292 293 293 293 294 295 295 296 296 297 298 299 300 301
204 204 209 213 214 215 222 240 258 278 290 285 277 274 274 257 230 219 219 211 205 221 243 257 261 263 269 275 279 286 289 293 295 287 292 307 313 316 307 295 292 301 312 312 312 313 311 314 318 317 315 311 309 306 302 299 295 294 293 294 295 295 294 293 290 289 288 287 288 288 289 289 291 291 291 292 293 294 294 295 296 297 298 298 299 299
216 216 216 220 225 228 225 237 281 284 274 271 269 265 257 241 233 239 251 251 243 240 245 254 258 260 266 273 281 290 295 297 295 293 297 299 303 302 296 292 288 294 309 310 311 313 314 316 318 319 318 314 312 309 305 301 297 296 296 296 296 294 293 292 291 290 289 288 287 287 287 287 288 288 289 290 291 292 292 294 295 295 296 297 298 299
238 237 230 228 233 245 243 234 262 265 262 261 261 266 272 268 262 267 277 280 279 268 252 253 262 266 267 275 286 293 295 293 292 299 304 300 301 297 289 288 287 294 306 305 303 307 312 317 316 316 318 315 313 309 306 303 300 298 298 297 296 294 293 292 290 289 288 288 287 286 286 286 286 286 286 288 289 290 291 292 292 293 294 295 297 298
272 277 272 259 248 246 248 253 264 262 261 263 270 284 295 292 282 279 283 283 282 279 262 252 262 271 276 284 289 287 286 287 292 302 305 300 300 297 290 288 292 303 309 305 301 297 306 315 314 311 311 310 310 308 305 302 300 298 296 295 294 293 292 290 289 287 285 286 286 285 285 284 284 284 285 286 286 287 288 289 289 290 291 293 294 296
286 301 301 292 273 254 257 264 264 262 264 267 270 279 288 288 285 280 276 272 272 274 271 266 268 274 281 286 283 282 285 289 293 297 299 300 302 300 294 291 294 302 305 308 306 297 300 309 311 309 307 306 306 306 304 301 297 295 294 294 294 293 291 289 286 284 283 283 283 283 283 283 283 283 283 284 284 284 285 286 287 288 289 290 291 293
250 255 273 281 264 241 245 248 249 256 266 271 268 266 267 270 275 276 275 271 268 271 280 288 281 275 278 276 275 282 288 288 285 284 289 296 297 294 291 290 292 293 295 303 307 305 302 304 307 306 304 303 304 304 303 298 294 291 292 295 296 295 292 288 285 283 281 281 281 281 281 281 282 283 283 282 282 283 284 285 285 286 287 288 289 291
246 237 242 248 245 241 243 249 254 260 266 271 272 269 264 263 265 269 272 273 273 278 286 289 275 270 276 278 278 282 285 286 286 287 292 296 293 290 287 285 286 286 285 292 301 305 302 300 301 302 302 302 300 300 299 293 288 287 292 296 298 296 293 288 285 283 282 280 280 280 280 280 281 282 282 282 282 283 283 283 284 285 285 287 288 289
251 240 241 247 257 261 258 258 260 258 255 261 272 274 269 265 265 267 270 272 276 282 283 277 265 265 276 288 290 283 285 291 291 289 293 295 292 290 288 285 284 282 281 287 295 299 298 296 297 299 302 301 298 296 294 289 286 287 292 296 297 296 292 288 285 283 282 281 280 280 279 279 279 280 280 281 281 281 282 282 283 284 285 286 288 289
255 244 239 243 256 264 263 261 261 259 254 257 269 273 270 267 268 270 270 269 273 279 280 279 276 275 283 295 297 291 293 296 292 287 288 289 287 286 285 284 284 282 281 285 288 290 290 291 294 298 301 301 298 295 291 288 287 288 291 294 296 295 291 287 285 283 281 280 280 279 279 278 278 278 278 279 279 279 280 281 283 284 285 286 287 288
251 239 234 238 246 259 262 257 254 256 258 262 267 268 270 274 278 279 277 274 276 282 286 288 289 291 294 298 298 296 295 290 285 281 281 282 282 281 281 281 281 281 281 282 283 284 286 289 294 297 296 296 297 296 292 290 288 289 291 293 294 294 291 287 284 282 281 280 280 279 279 278 278 278 278 278 278 279 280 281 282 284 284 285 286 287
247 231 230 239 248 258 262 255 252 256 258 260 268 274 278 279 282 285 285 285 287 289 290 288 288 292 295 295 293 291 288 283 279 277 276 278 278 277 278 279 280 280 279 278 279 280 284 289 293 294 293 293 295 294 292 290 288 288 291 293 294 293 290 287 284 282 282 282 281 280 280 280 279 279 279 279 280 280 280 281 282 283 284 284 285 285
259 250 247 251 256 262 262 259 263 267 260 258 272 284 282 277 279 284 285 286 287 289 290 289 288 290 293 293 292 290 287 282 278 276 277 279 280 279 279 279 281 281 279 279 281 283 286 288 289 292 292 291 292 291 289 288 288 289 291 292 292 292 290 288 286 285 285 285 285 283 282 281 280 280 280 280 280 280 280 281 282 282 283 283 284 284
262 259 260 262 261 262 257 256 264 268 262 261 269 276 277 278 281 281 280 280 280 281 286 289 289 291 292 292 292 289 284 279 277 279 281 281 282 283 283 282 283 282 281 281 283 284 285 285 288 291 291 289 290 290 289 288 288 289 291 290 289 290 290 288 287 287 287 287 286 285 283 282 280 280 279 279 279 279 279 280 281 281 282 283 283 284
264 259 259 261 260 259 255 252 257 263 265 266 267 272 276 278 279 279 277 277 276 277 283 288 290 293 292 291 291 285 278 280 284 287 287 285 285 284 280 278 278 278 278 277 278 281 283 285 287 288 288 287 286 286 286 287 287 289 289 288 287 288 288 287 287 287 286 285 284 283 282 280 279 278 278 277 277 278 278 279 280 281 282 282 283 283
271 268 262 259 256 258 260 257 256 258 261 265 269 275 279 279 278 277 275 276 278 280 283 285 287 289 289 289 292 288 286 290 292 292 291 290 289 284 277 275 275 274 273 270 270 275 281 284 285 285 285 285 285 284 285 286 287 288 288 287 286 287 287 286 286 284 283 283 282 281 280 279 278 278 277 277 277 277 278 279 280 281 282 283 284 285
274 275 273 268 261 258 258 258 260 259 258 262 267 272 276 278 280 278 275 274 276 279 283 284 284 286 287 288 290 290 290 293 293 292 292 291 290 285 279 279 279 278 277 273 269 272 280 283 283 283 284 284 284 286 287 288 289 288 287 286 286 286 285 284 283 282 281 281 280 280 281 280 278 277 277 277 277 278 279 280 281 282 284 285 286 287
272 274 277 276 272 266 260 257 260 261 261 261 263 266 269 274 278 279 277 274 272 274 280 283 286 288 288 288 289 287 287 289 289 287 286 286 287 285 283 282 280 280 281 277 274 279 286 286 284 286 287 285 287 290 290 289 289 288 287 286 286 285 283 283 283 282 282 280 279 281 282 280 278 277 278 279 279 279 280 280 281 283 284 285 286 286
269 272 275 277 277 275 270 266 262 261 262 263 263 264 266 270 273 275 275 272 270 272 276 279 285 287 283 284 284 281 281 282 281 280 281 283 284 284 283 281 280 281 281 278 278 282 287 286 285 288 288 286 287 287 287 288 288 289 290 288 287 286 284 285 286 284 283 280 280 282 283 280 278 279 282 282 281 279 279 280 281 283 285 286 286 287
266 268 270 273 276 276 274 273 269 266 266 266 266 266 267 270 272 272 273 272 270 270 270 271 279 284 281 281 280 276 275 275 273 273 277 280 282 282 281 280 280 282 282 282 283 286 289 287 285 288 288 288 288 285 288 292 290 290 292 287 285 288 287 286 286 284 282 282 284 285 284 281 281 282 283 282 281 280 280 281 283 285 286 286 287 288
266 267 268 270 272 274 275 276 276 274 272 269 268 268 269 271 272 270 271 272 271 271 269 266 272 281 282 281 279 277 277 276 273 271 272 274 276 278 279 279 281 282 283 283 284 287 288 285 284 287 287 288 287 285 289 293 291 290 289 283 284 288 285 283 284 285 285 285 285 285 284 283 283 283 282 283 283 284 284 285 286 287 287 288 288 289
268 268 270 270 270 271 271 272 274 274 273 271 270 269 269 270 271 270 270 269 270 271 270 267 272 278 279 277 276 276 277 277 275 272 271 270 271 272 274 276 279 281 282 282 283 283 282 282 282 283 283 282 281 282 286 291 291 290 289 287 288 286 281 282 286 287 287 286 284 284 283 282 282 283 284 285 285 285 285 286 287 287 288 289 289 288
266 267 268 270 271 271 271 270 269 269 268 269 270 271 272 271 271 271 270 267 266 266 265 266 271 275 276 275 273 274 276 277 277 276 274 273 273 273 273 273 275 277 278 280 280 280 280 279 278 277 277 276 277 281 285 287 287 287 288 289 290 285 282 285 289 289 287 284 281 281 281 281 283 285 286 285 285 285 285 286 286 287 288 288 287 286
264 265 266 268 270 271 272 272 272 272 270 268 267 267 267 266 266 267 267 266 264 262 263 266 267 269 273 276 273 272 273 275 278 278 276 275 275 275 274 272 272 271 273 275 276 276 278 278 277 276 275 275 277 280 282 282 283 284 284 284 285 285 285 287 288 286 283 281 280 279 279 282 285 287 286 286 286 286 286 287 288 288 288 287 285 286
264 266 267 268 269 270 272 274 275 275 275 274 273 270 267 264 263 262 263 265 265 263 265 269 267 265 271 275 274 272 271 271 273 273 272 272 272 272 271 270 268 265 266 268 270 272 274 275 276 277 277 279 280 280 280 280 282 282 281 281 283 284 285 287 286 284 281 280 281 281 282 285 287 287 286 285 285 285 287 288 289 289 288 286 285 286
265 266 267 268 269 270 271 273 274 274 275 276 277 277 274 271 269 268 267 269 270 270 271 272 268 266 270 273 271 270 269 269 268 268 268 269 270 270 269 268 265 264 265 267 269 270 271 271 271 273 276 278 279 279 279 280 281 279 279 281 282 283 283 283 284 284 284 285 286 286 287 287 287 286 285 284 285 286 288 289 288 288 287 286 286 288
263 265 266 267 268 269 271 271 272 273 273 274 277 277 275 275 275 275 275 276 277 278 277 274 270 267 268 269 269 269 268 267 266 266 267 268 269 270 270 269 266 265 266 268 269 270 270 270 270 272 274 275 275 276 277 278 278 277 278 280 281 281 282 282 284 285 286 287 289 289 289 288 287 286 285 286 287 289 290 289 289 289 289 288 288 289
260 261 262 265 266 268 270 270 270 271 271 272 276 275 274 276 277 277 278 279 278 278 277 276 275 272 269 268 269 269 269 268 267 267 268 269 270 271 271 271 270 269 269 270 271 271 271 272 272 273 274 275 276 276 276 276 277 278 279 279 280 280 282 283 285 286 286 288 289 289 288 288 287 286 287 289 291 291 291 291 291 291 290 290 290 290
262 260 260 261 262 265 267 266 267 268 268 271 276 275 274 276 275 274 275 276 276 276 276 277 277 276 273 271 271 271 271 270 269 269 269 270 271 271 271 271 272 273 273 274 274 273 273 273 273 274 275 277 277 278 278 278 278 280 280 280 281 282 283 285 286 286 286 287 287 286 286 286 285 286 289 292 293 293 292 292 292 292 292 292 292 291
265 264 262 261 261 262 261 262 264 265 265 269 274 274 272 273 273 272 273 273 274 276 276 276 277 277 276 275 274 275 274 274 273 272 271 271 271 272 273 274 274 275 276 277 277 277 276 276 276 276 276 277 278 280 281 280 281 281 281 282 284 285 286 286 286 286 286 285 284 284 284 285 287 290 293 294 293 293 292 293 293 293 293 293 292 290
269 269 268 267 266 263 260 261 263 263 265 270 272 270 270 270 271 271 272 272 273 274 276 277 277 277 278 278 278 278 277 276 275 274 274 273 273 274 274 275 275 276 277 277 278 278 279 279 280 280 280 280 281 281 281 281 282 283 284 287 289 289 288 287 286 286 286 285 285 286 286 287 290 292 292 293 293 293 293 292 292 293 293 292 291 289
275 275 275 274 273 271 267 265 265 265 266 269 269 268 269 270 270 272 273 273 273 273 274 276 277 277 278 279 279 280 280 278 276 276 277 277 276 276 275 275 275 275 275 276 276 277 278 279 280 280 281 281 280 279 280 282 284 285 287 289 291 291 289 287 283 283 286 288 288 289 289 290 292 292 292 294 295 295 294 293 293 292 292 291 290 288
277 277 278 277 277 277 274 272 271 270 269 268 269 270 271 272 272 273 273 273 273 273 274 275 276 277 278 278 279 280 281 280 279 278 279 279 280 280 279 278 277 276 276 276 277 277 278 278 279 280 280 280 280 280 280 281 282 282 284 287 289 288 284 280 278 280 286 290 291 291 291 292 292 293 293 295 296 296 295 294 294 293 292 290 288 287
276 276 277 277 276 276 276 275 274 274 272 272 273 274 273 273 273 273 273 273 273 272 273 273 274 275 276 276 277 277 279 280 281 280 280 280 281 280 280 279 279 278 278 279 279 280 281 280 280 280 280 279 280 280 280 280 281 282 283 283 281 276 271 272 278 283 289 292 293 292 292 292 293 294 295 296 296 296 296 295 293 292 290 288 287 287
276 276 276 276 275 276 276 277 277 277 277 275 275 275 275 275 275 275 275 275 274 273 273 273 274 274 274 274 274 275 277 279 280 280 280 280 280 279 279 279 279 279 278 279 280 280 281 282 282 281 281 281 281 281 281 280 279 277 273 269 267 268 273 279 283 285 287 289 290 292 293 294 296 297 297 297 297 297 296 294 291 289 287 287 288 289
275 276 276 276 277 278 279 279 279 280 280 279 277 276 276 277 277 278 278 278 278 278 278 278 278 278 278 277 276 276 277 278 279 279 279 279 279 279 279 279 279 279 279 279 279 277 277 278 278 279 280 281 280 277 273 269 266 265 266 269 273 279 284 285 284 283 284 287 289 292 294 297 299 299 298 298 297 296 293 290 288 287 288 289 289 287
274 275 276 276 278 279 279 280 280 281 281 281 280 279 278 279 280 281 281 281 282 283 282 282 282 281 281 280 279 279 279 279 280 280 280 280 280 279 279 279 279 279 279 279 278 276 275 275 274 274 275 275 273 269 266 267 271 276 279 281 283 285 286 284 283 282 283 286 289 292 294 297 299 299 299 297 295 291 289 288 288 288 289 288 287 285
275 274 274 275 276 276 276 276 277 278 279 279 279 279 279 280 281 281 282 283 284 284 284 284 283 282 281 280 280 280 280 280 280 280 281 281 280 280 279 278 278 278 278 278 277 276 274 273 272 273 273 271 270 269 270 273 277 281 283 284 285 285 285 284 283 282 283 286 288 291 294 297 298 298 297 293 289 288 288 288 288 288 288 288 288 290
276 276 276 275 275 275 274 274 275 275 276 277 278 278 279 279 279 279 280 282 282 282 282 283 282 281 281 281 281 281 281 281 281 280 280 280 280 279 279 278 278 278 277 276 275 274 272 271 271 272 273 273 272 272 273 275 278 281 283 284 284 284 284 284 283 283 284 286 288 292 294 296 296 295 291 287 286 287 287 287 288 289 290 291 292 293
277 277 277 277 277 277 276 276 277 277 277 277 278 279 280 280 279 280 280 280 280 280 280 280 280 280 280 280 280 280 280 280 280 280 280 279 279 279 279 278 278 277 276 275 274 273 272 272 272 273 274 275 276 276 277 278 280 282 283 284 284 285 285 286 286 286 287 289 291 293 294 293 291 289 286 285 286 287 287 288 290 291 292 292 292 292
276 277 278 278 279 279 278 277 279 280 281 282 283 283 283 283 282 281 280 279 279 279 279 279 279 279 279 279 279 279 279 279 279 279 279 279 278 278 278 278 277 277 277 276 275 274 274 274 274 275 276 276 277 277 278 279 281 282 282 283 284 286 287 287 287 287 288 290 292 292 290 288 286 285 283 283 285 286 288 290 291 291 291 291 291 291
277 278 278 279 280 280 279 280 282 283 285 287 287 286 286 285 283 282 282 281 280 280 280 280 281 281 281 281 280 280 279 279 278 278 278 278 278 278 278 278 277 277 277 277 276 275 276 276 276 276 276 276 276 276 277 278 279 280 281 282 284 286 286 287 287 287 287 288 288 287 286 285 283 281 280 281 284 288 291 292 291 291 291 291 292 292
278 280 281 281 280 280 280 282 284 286 287 288 287 285 285 284 284 283 283 283 282 282 281 282 282 281 281 281 280 280 280 279 278 278 277 277 277 277 277 277 277 277 277 277 277 277 278 278 278 278 277 277 277 277 277 277 278 279 280 281 283 283 284 284 284 284 284 283 283 283 282 281 278 278 280 284 289 292 293 292 291 292 292 292 292 293
279 281 282 281 280 280 281 283 286 287 286 285 284 283 284 284 284 284 283 282 282 282 283 283 282 282 282 281 281 281 281 281 281 280 279 279 278 278 277 277 277 278 278 279 279 279 280 280 280 280 280 281 280 280 279 278 278 279 279 279 280 280 280 280 280 280 280 280 279 278 276 275 277 281 286 290 293 293 292 292 293 293 292 292 294 295
278 279 280 280 280 281 282 283 283 283 282 282 282 282 283 283 282 282 281 281 282 282 282 282 281 282 282 282 282 282 281 281 282 282 281 282 282 282 282 281 281 281 281 281 281 282 284 285 284 284 285 285 284 282 279 278 278 278 278 279 279 278 278 278 279 280 279 276 274 272 273 277 282 287 291 292 292 292 292 292 293 292 293 296 297 297
280 280 281 281 280 280 281 282 281 280 279 279 280 281 282 282 281 280 280 280 281 281 281 281 281 281 281 281 280 280 280 280 281 281 281 282 283 283 283 282 281 283 284 284 284 283 282 281 281 283 285 287 287 285 281 278 279 280 280 278 276 274 275 276 278 277 274 271 272 274 278 284 288 290 291 291 291 291 292 291 292 294 297 300 300 301
282 282 281 279 278 280 281 281 280 279 278 279 280 281 282 281 280 279 280 280 281 281 281 281 281 281 281 280 281 281 282 281 281 281 282 283 283 282 278 275 274 277 282 286 287 283 276 275 278 282 286 289 291 290 286 281 278 277 275 274 273 274 275 275 274 272 272 274 277 281 285 288 289 289 289 289 290 291 291 293 295 298 300 302 303 304
282 281 279 277 278 280 280 279 279 278 279 281 282 281 280 280 279 280 281 281 281 282 282 282 282 281 280 281 283 283 283 283 283 282 282 282 281 279 275 270 267 268 273 282 288 285 277 276 280 283 285 288 291 291 287 281 275 273 273 274 275 276 275 273 273 275 278 281 284 287 288 288 287 288 289 290 290 290 292 296 300 302 304 306 306 304
Height
5853 5854 5854 5855 5855 5856 5857 5857 5856 5856 5856 5855 5855 5854 5854 5856 5858 5860 5860 5859 5859 5859 5858 5857 5856 5856 5856 5857 5857 5857 5857 5858 5859 5858 5858 5859 5859 5858 5857 5857 5857 5857 5857 5858 5858 5857 5857 5856 5856 5855 5854 5854 5853 5852 5852 5852 5851 5851 5852 5852 5851 5849 5848 5847 5846 5846 5846 5847 5847 5847 5847 5847 5846 5845 5845 5844 5843 5843 5842 5841 5840 5840 5839 5838 5838 5837
5852 5852 5853 5853 5854 5854 5855 5855 5854 5854 5854 5853 5853 5853 5854 5856 5857 5858 5858 5859 5858 5856 5856 5855 5855 5855 5855 5855 5854 5854 5855 5857 5857 5857 5857 5858 5858 5857 5856 5856 5856 5856 5856 5856 5856 5855 5855 5854 5853 5853 5852 5852 5851 5850 5849 5849 5849 5849 5850 5849 5848 5847 5846 5845 5844 5843 5844 5844 5844 5844 5844 5844 5843 5843 5842 5841 5840 5840 5839 5838 5837 5836 5836 5835 5834 5833
5851 5851 5852 5852 5853 5853 5853 5853 5852 5853 5852 5851 5851 5852 5853 5854 5855 5856 5856 5856 5855 5854 5854 5853 5853 5853 5852 5852 5852 5852 5853 5854 5855 5855 5856 5856 5855 5854 5853 5853 5854 5854 5854 5854 5854 5853 5853 5852 5852 5851 5851 5850 5849 5848 5848 5847 5847 5847 5847 5847 5846 5844 5843 5842 5841 5841 5841 5842 5842 5842 5841 5841 5840 5840 5839 5838 5837 5836 5835 5834 5833 5833 5832 5831 5830 5829
5850 5851 5850 5850 5850 5851 5851 5851 5851 5850 5850 5850 5851 5852 5852 5853 5853 5854 5853 5852 5852 5852 5852 5851 5851 5851 5850 5850 5849 5849 5850 5851 5852 5853 5853 5853 5852 5851 5851 5851 5851 5852 5852 5853 5852 5851 5851 5850 5850 5849 5849 5848 5847 5847 5846 5845 5845 5845 5845 5844 5843 5841 5840 5839 5839 5839 5839 5839 5839 5839 5838 5838 5837 5836 5835 5834 5834 5833 5832 5831 5830 5829 5828 5827 5826 5826
5849 5849 5848 5848 5848 5849 5849 5849 5848 5848 5849 5850 5850 5850 5850 5850 5850 5850 5850 5849 5849 5850 5850 5849 5849 5849 5850 5849 5848 5848 5847 5848 5850 5851 5851 5850 5849 5849 5849 5849 5849 5850 5850 5850 5850 5849 5849 5848 5848 5847 5846 5846 5845 5844 5843 5843 5842 5842 5842 5841 5840 5838 5837 5836 5836 5836 5836 5836 5836 5836 5835 5835 5834 5833 5832 5831 5830 5829 5828 5827 5826 5825 5823 5822 5822 5821
5848 5847 5847 5847 5847 5847 5847 5847 5846 5847 5848 5849 5849 5848 5848 5848 5848 5848 5848 5848 5849 5849 5848 5848 5847 5847 5848 5848 5847 5846 5846 5846 5847 5848 5848 5848 5847 5847 5846 5846 5846 5847 5848 5848 5847 5847 5846 5845 5845 5844 5843 5842 5841 5841 5840 5840 5840 5839 5838 5837 5836 5835 5834 5833 5833 5833 5833 5833 5833 5833 5832 5831 5831 5830 5828 5827 5826 5825 5824 5823 5822 5820 5819 5818 5817 5816
5846 5845 5845 5844 5844 5844 5845 5846 5846 5846 5847 5848 5847 5846 5846 5846 5847 5847 5847 5847 5846 5847 5847 5846 5844 5844 5845 5846 5846 5845 5844 5843 5844 5845 5845 5845 5844 5844 5844 5844 5843 5844 5845 5845 5844 5844 5843 5842 5841 5841 5840 5839 5839 5838 5838 5837 5836 5835 5834 5833 5832 5831 5831 5830 5830 5830 5829 5829 5829 5829 5828 5828 5827 5826 5825 5824 5823 5821 5820 5819 5818 5817 5816 5814 5813 5812
5843 5843 5842 5842 5842 5843 5844 5845 5845 5844 5845 5846 5846 5845 5845 5845 5845 5845 5845 5844 5844 5843 5844 5845 5843 5840 5841 5844 5844 5842 5842 5841 5841 5842 5842 5841 5842 5842 5842 5842 5841 5842 5842 5842 5841 5841 5840 5839 5839 5838 5838 5836 5836 5835 5835 5834 5833 5832 5831 5830 5829 5828 5828 5827 5827 5827 5826 5826 5826 5825 5825 5824 5823 5822 5821 5820 5819 5817 5816 5815 5814 5813 5812 5811 5809 5808
5841 5841 5842 5841 5841 5842 5842 5844 5844 5843 5843 5845 5844 5844 5844 5843 5843 5843 5842 5842 5841 5840 5840 5843 5843 5838 5837 5841 5841 5839 5838 5839 5838 5838 5838 5838 5839 5839 5839 5839 5839 5839 5839 5839 5839 5838 5837 5836 5835 5835 5834 5833 5832 5831 5831 5830 5829 5828 5827 5827 5826 5825 5825 5824 5824 5823 5823 5823 5822 5822 5821 5820 5819 5818 5817 5816 5815 5813 5812 5811 5810 5809 5808 5807 5805 5804
5839 5840 5840 5840 5840 5840 5841 5841 5841 5840 5841 5841 5841 5841 5840 5840 5840 5839 5839 5839 5838 5837 5837 5841 5841 5837 5834 5838 5839 5837 5836 5836 5835 5834 5835 5835 5836 5836 5837 5836 5836 5836 5836 5835 5835 5835 5834 5833 5832 5831 5830 5829 5828 5827 5827 5826 5825 5825 5824 5823 5822 5822 5821 5821 5820 5820 5820 5819 5818 5818 5817 5815 5815 5813 5813 5812 5810 5809 5808 5807 5805 5804 5803 5802 5801 5799
5837 5837 5837 5837 5838 5838 5838 5839 5838 5838 5838 5838 5837 5837 5837 5837 5837 5836 5836 5836 5835 5835 5836 5838 5838 5834 5831 5834 5837 5836 5834 5833 5832 5832 5832 5832 5832 5833 5834 5833 5833 5833 5833 5832 5832 5832 5831 5830 5829 5828 5827 5825 5824 5824 5823 5822 5821 5821 5820 5820 5819 5818 5818 5817 5817 5816 5816 5815 5814 5813 5812 5811 5810 5809 5808 5807 5805 5804 5803 5801 5800 5799 5798 5796 5795 5794
5835 5835 5835 5835 5835 5836 5836 5836 5836 5836 5836 5835 5835 5834 5834 5834 5834 5833 5833 5833 5832 5832 5834 5834 5834 5832 5829 5832 5835 5833 5831 5831 5831 5830 5830 5829 5829 5829 5830 5830 5830 5830 5829 5829 5829 5829 5828 5827 5826 5824 5823 5822 5820 5820 5820 5819 5818 5817 5816 5816 5815 5815 5814 5813 5812 5812 5811 5811 5810 5809 5808 5806 5805 5804 5802 5801 5800 5798 5797 5796 5794 5793 5792 5791 5790 5789
5832 5833 5833 5833 5833 5833 5833 5834 5834 5833 5833 5832 5832 5831 5831 5831 5831 5831 5831 5831 5830 5830 5831 5830 5830 5829 5828 5830 5831 5830 5829 5828 5827 5827 5826 5826 5826 5826 5826 5826 5826 5826 5826 5826 5826 5825 5824 5824 5823 5821 5819 5818 5817 5816 5816 5815 5814 5813 5812 5811 5811 5810 5809 5809 5808 5807 5806 5805 5804 5803 5802 5801 5799 5798 5797 5796 5794 5793 5791 5790 5789 5788 5787 5786 5784 5783
5830 5830 5830 5831 5830 5829 5829 5830 5830 5830 5830 5830 5829 5828 5828 5828 5828 5828 5828 5828 5827 5827 5828 5827 5825 5825 5825 5826 5826 5826 5825 5824 5824 5823 5822 5822 5822 5822 5822 5822 5822 5822 5822 5822 5822 5821 5820 5820 5819 5817 5815 5814 5812 5811 5811 5810 5809 5808 5807 5806 5806 5805 5805 5804 5803 5802 5801 5800 5799 5797 5796 5795 5794 5793 5792 5790 5789 5788 5786 5785 5784 5783 5782 5781 5779 5778
5827 5828 5828 5828 5828 5827 5827 5826 5825 5826 5826 5826 5826 5826 5825 5825 5824 5824 5823 5823 5823 5823 5823 5824 5822 5821 5822 5823 5823 5823 5821 5820 5820 5819 5818 5817 5818 5818 5818 5817 5817 5816 5816 5817 5817 5816 5815 5815 5814 5813 5811 5810 5808 5806 5806 5805 5804 5803 5803 5802 5801 5801 5800 5799 5798 5797 5796 5794 5793 5792 5791 5790 5788 5787 5786 5785 5784 5783 5782 5780 5779 5778 5777 5775 5774 5772
5823 5825 5825 5825 5825 5825 5825 5824 5822 5823 5824 5823 5823 5824 5824 5823 5822 5821 5820 5819 5819 5817 5816 5818 5818 5818 5819 5819 5819 5819 5818 5816 5814 5814 5815 5814 5813 5813 5813 5812 5811 5810 5810 5810 5810 5810 5810 5810 5810 5808 5807 5805 5803 5802 5801 5800 5800 5799 5798 5797 5796 5796 5795 5794 5793 5791 5790 5789 5788 5787 5785 5784 5783 5782 5781 5779 5778 5777 5776 5775 5774 5772 5771 5769 5768 5766
5819 5821 5821 5822 5822 5822 5823 5822 5821 5821 5821 5820 5820 5821 5821 5820 5819 5819 5817 5816 5815 5812 5811 5812 5813 5814 5815 5814 5815 5814 5812 5809 5807 5808 5811 5811 5810 5809 5808 5807 5806 5805 5804 5804 5803 5803 5803 5804 5804 5803 5802 5800 5799 5797 5796 5795 5794 5794 5793 5792 5791 5790 5789 5788 5786 5785 5784 5783 5782 5781 5780 5779 5778 5777 5776 5774 5773 5772 5770 5769 5768 5766 5764 5763 5761 5759
5815 5818 5819 5819 5819 5819 5820 5820 5820 5818 5817 5817 5817 5816 5816 5816 5815 5815 5813 5813 5811 5809 5807 5808 5808 5808 5809 5809 5809 5808 5806 5803 5802 5803 5804 5805 5805 5804 5803 5802 5801 5800 5799 5798 5797 5797 5796 5797 5798 5797 5796 5795 5794 5793 5791 5789 5788 5788 5787 5786 5785 5784 5783 5781 5780 5779 5778 5777 5776 5776 5775 5773 5772 5771 5770 5769 5767 5766 5764 5763 5761 5759 5757 5756 5754 5752
5811 5813 5815 5816 5817 5817 5817 5818 5818 5817 5815 5814 5814 5813 5812 5811 5811 5810 5809 5808 5807 5805 5804 5805 5805 5804 5804 5804 5803 5801 5800 5798 5796 5797 5796 5796 5797 5797 5796 5795 5795 5794 5793 5792 5791 5791 5791 5791 5791 5791 5790 5789 5788 5787 5786 5784 5783 5781 5780 5779 5778 5777 5776 5775 5773 5773 5772 5771 5770 5769 5768 5767 5766 5765 5764 5762 5761 5759 5758 5756 5754 5752 5750 5748 5747 5745
5807 5808 5809 5812 5814 5815 5815 5815 5815 5814 5813 5812 5812 5811 5809 5807 5806 5805 5804 5804 5803 5802 5801 5801 5803 5802 5800 5799 5799 5796 5794 5793 5791 5790 5789 5789 5790 5790 5790 5790 5789 5789 5788 5787 5786 5786 5787 5786 5785 5785 5784 5783 5782 5780 5779 5779 5778 5776 5774 5773 5772 5771 5770 5769 5768 5767 5765 5765 5764 5762 5762 5761 5759 5758 5757 5755 5754 5753 5751 5749 5746 5744 5743 5742 5740 5739
5805 5804 5803 5805 5809 5811 5812 5812 5811 5811 5810 5810 5809 5808 5806 5804 5802 5801 5801 5800 5798 5798 5797 5795 5797 5799 5795 5793 5793 5791 5789 5788 5786 5785 5783 5783 5783 5782 5783 5783 5783 5783 5783 5782 5781 5780 5780 5780 5779 5779 5777 5777 5776 5774 5773 5773 5772 5771 5769 5768 5767 5766 5765 5764 5763 5761 5760 5759 5757 5756 5755 5754 5753 5751 5750 5749 5747 5746 5744 5742 5740 5738 5737 5736 5734 5733
5801 5800 5799 5800 5802 5804 5806 5807 5807 5806 5806 5806 5805 5804 5803 5801 5799 5797 5796 5795 5793 5793 5791 5789 5791 5793 5790 5788 5789 5786 5785 5785 5782 5780 5778 5777 5778 5777 5776 5776 5776 5776 5776 5776 5775 5773 5773 5772 5771 5771 5770 5769 5769 5768 5767 5767 5767 5766 5764 5763 5762 5762 5760 5759 5757 5756 5754 5752 5751 5750 5749 5747 5746 5745 5743 5742 5740 5738 5736 5734 5733 5732 5731 5729 5728 5726
5798 5797 5796 5795 5796 5797 5798 5799 5801 5801 5802 5801 5800 5799 5798 5796 5794 5792 5790 5790 5789 5788 5786 5784 5784 5786 5784 5783 5783 5781 5781 5781 5779 5777 5775 5773 5773 5772 5771 5771 5770 5770 5770 5768 5767 5766 5767 5766 5764 5763 5763 5762 5761 5761 5760 5758 5758 5759 5759 5758 5757 5756 5754 5752 5750 5748 5747 5745 5744 5743 5742 5740 5739 5737 5735 5734 5732 5730 5728 5727 5726 5725 5723 5722 5720 5719
5793 5792 5791 5791 5791 5791 5791 5792 5792 5794 5795 5795 5794 5794 5793 5791 5788 5786 5784 5783 5782 5782 5781 5778 5777 5779 5780 5779 5777 5774 5774 5775 5774 5772 5771 5770 5770 5768 5766 5764 5764 5764 5763 5762 5761 5761 5761 5759 5758 5757 5757 5756 5755 5754 5753 5751 5750 5751 5752 5752 5751 5749 5747 5744 5743 5741 5740 5738 5737 5735 5733 5732 5730 5728 5726 5725 5724 5722 5720 5719 5718 5717 5715 5714 5713 5711
5787 5786 5785 5784 5785 5785 5785 5785 5785 5786 5787 5787 5787 5788 5787 5785 5783 5781 5780 5778 5776 5775 5775 5771 5768 5771 5776 5776 5773 5770 5769 5769 5769 5768 5766 5765 5765 5764 5762 5760 5759 5757 5756 5755 5755 5755 5754 5753 5752 5751 5750 5749 5748 5746 5746 5746 5744 5743 5742 5743 5743 5742 5740 5738 5736 5735 5733 5731 5729 5726 5724 5722 5721 5720 5719 5717 5716 5714 5712 5711 5710 5709 5707 5706 5704 5703
5780 5780 5779 5778 5778 5777 5777 5778 5778 5780 5780 5780 5781 5782 5781 5780 5777 5775 5775 5773 5770 5768 5767 5765 5761 5763 5769 5771 5769 5767 5764 5763 5763 5763 5761 5759 5758 5758 5758 5757 5756 5753 5750 5749 5748 5747 5747 5746 5745 5744 5743 5742 5741 5740 5740 5740 5738 5737 5736 5735 5735 5733 5732 5731 5729 5728 5725 5723 5720 5718 5716 5715 5714 5713 5712 5710 5708 5706 5705 5703 5702 5701 5699 5697 5695 5694
5773 5773 5773 5772 5772 5770 5769 5769 5770 5771 5772 5774 5776 5776 5775 5774 5772 5770 5768 5766 5764 5760 5759 5760 5757 5755 5760 5764 5762 5760 5759 5757 5757 5756 5754 5753 5752 5751 5750 5749 5749 5747 5745 5743 5741 5739 5738 5737 5736 5736 5736 5736 5735 5734 5733 5732 5731 5730 5729 5728 5727 5725 5723 5723 5721 5719 5717 5714 5711 5709 5708 5708 5707 5706 5704 5701 5699 5698 5696 5694 5693 5691 5689 5687 5686 5685
5767 5766 5766 5766 5766 5765 5763 5762 5762 5762 5763 5764 5767 5768 5768 5767 5765 5764 5761 5759 5757 5751 5750 5755 5755 5749 5752 5757 5755 5752 5751 5750 5749 5748 5746 5746 5745 5744 5743 5742 5741 5740 5738 5736 5735 5733 5732 5730 5730 5730 5729 5729 5728 5727 5726 5725 5724 5722 5720 5719 5719 5717 5715 5714 5712 5709 5708 5706 5704 5702 5701 5700 5699 5697 5695 5692 5690 5688 5687 5686 5684 5682 5680 5679 5677 5676
5761 5760 5759 5759 5760 5759 5758 5757 5754 5754 5755 5755 5757 5759 5758 5757 5757 5756 5752 5749 5748 5743 5742 5748 5748 5744 5746 5748 5746 5744 5742 5740 5739 5738 5737 5737 5736 5736 5736 5735 5733 5732 5730 5729 5728 5727 5725 5724 5723 5723 5723 5722 5721 5720 5719 5717 5716 5714 5712 5711 5710 5709 5706 5704 5702 5700 5699 5698 5696 5695 5694 5692 5690 5687 5685 5682 5681 5680 5679 5677 5675 5673 5672 5671 5669 5667
5755 5754 5752 5751 5752 5754 5754 5751 5747 5746 5746 5748 5751 5751 5747 5747 5749 5747 5741 5740 5739 5735 5734 5736 5736 5738 5741 5739 5736 5735 5733 5730 5728 5727 5728 5728 5728 5727 5727 5726 5725 5724 5722 5721 5720 5720 5719 5718 5717 5715 5715 5714 5713 5712 5711 5709 5707 5706 5704 5703 5702 5700 5697 5695 5693 5692 5691 5689 5688 5686 5684 5682 5680 5677 5675 5674 5673 5672 5670 5668 5666 5664 5663 5661 5659 5657
5749 5748 5747 5744 5742 5747 5750 5745 5740 5739 5738 5740 5746 5744 5739 5740 5742 5738 5732 5732 5729 5724 5724 5725 5724 5728 5733 5730 5727 5726 5723 5720 5719 5719 5720 5720 5720 5719 5718 5717 5715 5714 5714 5713 5712 5712 5711 5710 5708 5706 5705 5704 5704 5703 5702 5700 5698 5697 5696 5695 5693 5691 5689 5687 5686 5684 5682 5681 5679 5677 5674 5672 5670 5668 5667 5667 5665 5663 5661 5659 5657 5655 5653 5651 5649 5647
5741 5740 5741 5738 5733 5740 5746 5739 5731 5730 5730 5734 5739 5736 5734 5734 5732 5730 5727 5722 5717 5714 5715 5717 5714 5716 5720 5720 5719 5716 5713 5712 5712 5712 5713 5713 5711 5710 5710 5709 5707 5705 5705 5704 5703 5702 5701 5700 5698 5697 5696 5696 5694 5693 5692 5691 5690 5689 5687 5686 5684 5682 5681 5680 5679 5676 5674 5672 5670 5668 5666 5663 5661 5660 5659 5658 5656 5654 5652 5649 5647 5645 5643 5641 5639 5637
5732 5730 5733 5730 5725 5733 5740 5733 5723 5721 5723 5730 5734 5730 5728 5726 5722 5722 5720 5712 5709 5709 5708 5707 5706 5706 5707 5708 5708 5705 5701 5702 5704 5703 5704 5704 5703 5702 5701 5700 5699 5697 5696 5694 5692 5691 5690 5689 5688 5688 5688 5687 5686 5685 5684 5682 5681 5679 5677 5676 5675 5674 5673 5671 5670 5667 5665 5662 5660 5659 5657 5654 5653 5651 5650 5648 5646 5644 5642 5640 5638 5636 5634 5632 5630 5628
5724 5722 5722 5721 5718 5723 5731 5725 5716 5712 5717 5727 5728 5721 5719 5717 5714 5713 5709 5703 5704 5704 5700 5699 5698 5698 5697 5697 5697 5693 5689 5692 5694 5692 5692 5694 5693 5693 5692 5691 5690 5689 5688 5686 5684 5682 5681 5679 5679 5678 5678 5679 5678 5677 5674 5672 5671 5670 5668 5667 5666 5665 5664 5661 5659 5658 5656 5653 5651 5650 5648 5646 5644 5643 5641 5639 5638 5636 5634 5632 5630 5628 5625 5623 5620 5618
5715 5713 5712 5711 5709 5712 5718 5716 5707 5705 5715 5721 5717 5712 5711 5709 5707 5705 5700 5696 5697 5697 5693 5692 5690 5689 5688 5688 5688 5683 5678 5680 5684 5682 5682 5682 5683 5683 5683 5681 5681 5680 5680 5679 5677 5676 5674 5672 5671 5670 5670 5670 5669 5667 5665 5664 5663 5661 5660 5660 5659 5658 5656 5652 5651 5651 5649 5645 5643 5642 5639 5637 5636 5634 5632 5631 5629 5628 5625 5623 5621 5618 5616 5613 5610 5608
5707 5705 5703 5703 5701 5700 5704 5703 5697 5698 5707 5711 5706 5704 5705 5701 5698 5697 5692 5688 5689 5688 5687 5685 5683 5681 5681 5681 5681 5677 5671 5671 5674 5674 5673 5673 5673 5673 5673 5672 5672 5671 5671 5671 5670 5669 5668 5666 5665 5664 5663 5662 5660 5658 5657 5656 5655 5654 5654 5653 5652 5650 5648 5645 5644 5643 5640 5637 5636 5633 5631 5629 5628 5626 5624 5622 5620 5618 5616 5613 5611 5608 5605 5602 5600 5598
5700 5698 5696 5694 5694 5693 5692 5691 5689 5689 5695 5701 5700 5696 5695 5692 5690 5687 5683 5680 5681 5681 5680 5678 5676 5675 5675 5675 5675 5672 5666 5664 5665 5666 5666 5665 5665 5665 5664 5664 5663 5663 5662 5662 5662 5661 5660 5659 5658 5657 5656 5654 5652 5651 5650 5648 5647 5647 5646 5645 5643 5640 5639 5637 5635 5633 5631 5629 5627 5625 5623 5622 5620 5618 5616 5614 5611 5609 5606 5603 5601 5597 5595 5593 5591 5589
5691 5690 5689 5685 5684 5686 5684 5681 5681 5680 5683 5692 5693 5686 5683 5682 5680 5678 5673 5670 5672 5673 5672 5671 5670 5669 5669 5668 5667 5665 5662 5660 5658 5658 5658 5658 5657 5657 5657 5656 5655 5655 5655 5654 5654 5654 5654 5652 5651 5649 5648 5646 5644 5643 5642 5640 5639 5638 5637 5635 5633 5630 5629 5628 5627 5625 5623 5621 5619 5617 5615 5613 5612 5610 5607 5605 5602 5599 5597 5594 5591 5589 5586 5584 5583 5581
5684 5682 5681 5677 5676 5678 5676 5672 5672 5672 5672 5678 5681 5678 5676 5673 5670 5669 5665 5661 5663 5664 5663 5663 5662 5660 5659 5658 5657 5657 5655 5653 5651 5650 5650 5650 5649 5648 5648 5647 5647 5646 5647 5647 5647 5647 5647 5645 5643 5641 5640 5639 5636 5634 5631 5629 5627 5626 5626 5625 5624 5623 5622 5621 5619 5617 5615 5612 5610 5609 5607 5605 5603 5601 5598 5596 5593 5590 5588 5585 5583 5581 5579 5576 5574 5572
5678 5676 5673 5671 5670 5671 5669 5665 5664 5664 5663 5665 5668 5669 5668 5666 5663 5661 5656 5654 5655 5655 5653 5654 5653 5651 5649 5648 5647 5647 5646 5644 5643 5642 5641 5641 5640 5640 5639 5638 5638 5638 5638 5638 5638 5638 5638 5636 5634 5632 5632 5631 5629 5626 5622 5619 5617 5617 5617 5616 5616 5615 5614 5612 5610 5608 5606 5604 5602 5600 5598 5597 5594 5592 5589 5587 5584 5582 5580 5578 5576 5573 5570 5567 5564 5561
5671 5669 5667 5666 5664 5664 5662 5659 5658 5657 5655 5657 5658 5658 5660 5661 5658 5653 5649 5647 5648 5646 5644 5645 5644 5642 5640 5639 5638 5638 5637 5636 5635 5635 5634 5632 5631 5630 5630 5629 5629 5629 5629 5629 5629 5629 5628 5627 5625 5623 5622 5622 5621 5619 5616 5613 5611 5609 5609 5608 5607 5606 5605 5604 5602 5599 5597 5595 5593 5592 5590 5588 5586 5584 5581 5578 5576 5575 5572 5570 5567 5564 5561 5558 5554 5550
5662 5660 5660 5660 5658 5657 5655 5653 5652 5650 5649 5649 5650 5650 5653 5654 5650 5647 5644 5642 5641 5639 5636 5635 5635 5633 5631 5630 5630 5629 5628 5627 5626 5626 5625 5624 5622 5621 5620 5619 5618 5619 5619 5620 5619 5619 5618 5617 5615 5614 5613 5612 5611 5610 5608 5605 5603 5601 5600 5599 5598 5597 5596 5594 5592 5590 5588 5587 5585 5584 5583 5581 5578 5575 5573 5571 5569 5567 5565 5561 5558 5555 5551 5547 5543 5540
5654 5652 5652 5651 5649 5648 5647 5645 5644 5643 5641 5642 5643 5642 5644 5645 5642 5640 5638 5636 5633 5631 5629 5627 5627 5625 5623 5622 5621 5620 5619 5618 5616 5615 5614 5613 5612 5610 5609 5609 5608 5607 5609 5610 5609 5608 5608 5606 5605 5604 5603 5602 5600 5598 5597 5595 5594 5593 5591 5590 5589 5588 5586 5584 5582 5580 5578 5577 5577 5576 5574 5572 5570 5567 5565 5564 5561 5559 5556 5553 5549 5545 5541 5537 5534 5532
5647 5645 5645 5644 5641 5638 5637 5638 5638 5634 5632 5634 5635 5633 5633 5635 5633 5630 5629 5627 5625 5623 5620 5618 5618 5616 5614 5613 5612 5611 5611 5609 5607 5605 5603 5602 5602 5600 5599 5598 5597 5596 5598 5599 5598 5598 5597 5595 5594 5593 5592 5591 5589 5588 5586 5585 5584 5583 5581 5580 5579 5578 5575 5573 5571 5569 5568 5568 5568 5567 5565 5563 5562 5560 5558 5556 5553 5550 5548 5544 5540 5536 5532 5529 5526 5523
5641 5639 5637 5637 5634 5628 5626 5631 5632 5627 5624 5626 5626 5622 5622 5624 5622 5619 5616 5616 5615 5614 5611 5608 5608 5607 5605 5603 5601 5600 5601 5599 5597 5595 5593 5592 5592 5590 5588 5588 5586 5586 5588 5589 5588 5587 5585 5584 5583 5582 5580 5579 5578 5577 5576 5575 5574 5573 5571 5570 5569 5567 5565 5563 5561 5560 5559 5560 5559 5558 5556 5555 5554 5552 5550 5547 5545 5542 5538 5535 5531 5527 5524 5521 5518 5515
5635 5632 5630 5629 5625 5618 5618 5625 5624 5619 5617 5617 5615 5612 5611 5611 5611 5609 5605 5603 5603 5603 5601 5599 5597 5596 5595 5592 5589 5588 5588 5588 5586 5584 5583 5582 5581 5580 5579 5577 5576 5576 5577 5577 5576 5575 5574 5573 5572 5570 5569 5568 5567 5566 5565 5564 5563 5563 5563 5562 5561 5558 5556 5553 5552 5551 5551 5551 5550 5549 5548 5547 5546 5544 5542 5539 5536 5533 5530 5526 5523 5520 5517 5514 5511 5508
5629 5625 5623 5619 5614 5609 5612 5619 5618 5611 5608 5606 5603 5603 5603 5601 5599 5598 5594 5591 5590 5590 5590 5588 5585 5583 5582 5581 5578 5576 5575 5575 5573 5571 5570 5569 5568 5568 5567 5566 5566 5566 5566 5566 5565 5564 5563 5562 5560 5559 5558 5557 5555 5554 5553 5553 5553 5553 5553 5553 5551 5549 5546 5544 5544 5543 5543 5542 5541 5541 5540 5540 5539 5537 5534 5531 5528 5525 5522 5518 5516 5513 5511 5508 5504 5502
5621 5618 5615 5609 5604 5602 5606 5612 5611 5603 5599 5597 5593 5593 5594 5592 5589 5586 5582 5579 5578 5578 5578 5577 5573 5571 5570 5569 5567 5564 5563 5563 5561 5559 5557 5557 5557 5556 5556 5555 5556 5556 5556 5556 5555 5555 5555 5553 5551 5550 5549 5547 5545 5543 5543 5543 5544 5544 5544 5543 5541 5540 5538 5537 5537 5536 5535 5535 5534 5533 5533 5532 5531 5529 5526 5524 5521 5518 5514 5512 5509 5507 5505 5501 5498 5495
5611 5611 5608 5597 5591 5594 5597 5600 5599 5593 5590 5590 5587 5585 5584 5582 5578 5575 5572 5571 5570 5568 5566 5565 5563 5562 5560 5558 5556 5554 5553 5554 5552 5549 5548 5548 5548 5547 5547 5547 5547 5548 5548 5548 5547 5547 5548 5547 5544 5542 5541 5540 5538 5537 5536 5536 5537 5537 5536 5535 5533 5532 5532 5531 5531 5530 5529 5529 5528 5527 5526 5525 5524 5522 5519 5517 5514 5511 5509 5506 5504 5502 5499 5495 5491 5487
5601 5601 5597 5584 5579 5584 5588 5589 5586 5579 5576 5580 5582 5580 5577 5573 5567 5563 5562 5562 5561 5559 5556 5554 5554 5554 5551 5549 5547 5546 5545 5546 5545 5542 5541 5542 5542 5541 5540 5539 5540 5541 5541 5541 5541 5541 5541 5540 5538 5537 5535 5534 5533 5532 5531 5530 5530 5530 5529 5528 5527 5526 5526 5526 5525 5525 5524 5523 5522 5521 5520 5519 5517 5515 5513 5510 5508 5506 5504 5501 5499 5496 5494 5491 5486 5481
5592 5587 5581 5572 5571 5575 5577 5577 5574 5566 5563 5568 5572 5571 5569 5565 5558 5554 5554 5553 5552 5551 5549 5547 5547 5547 5545 5543 5541 5540 5539 5539 5539 5537 5537 5537 5536 5534 5533 5533 5534 5535 5535 5535 5536 5537 5537 5535 5534 5532 5531 5530 5529 5527 5526 5525 5524 5524 5523 5522 5521 5521 5521 5521 5520 5519 5518 5517 5516 5515 5514 5512 5511 5509 5506 5505 5504 5502 5500 5498 5493 5490 5487 5485 5481 5476